Simultaneous Nadir Overpasses (SNOs) Predictions

Prediction of SNOs between GOES-14 and AQUA Satellite Orbit:

Table of predicted SNOs for the next 14.0 days since TLE Epoch: 4/3/2021
Index Date Time (GOES-14) GOES-14 Lat,Lon AQUA Lat,Lon Distance(km) Time Diff (sec)
1 04/03/2021 08:29:33 0.13,-104.34 -0.09,-103.19 130.45 80
2 04/03/2021 20:50:58 -0.13,-104.33 -0.97,-108.39 461.28 80
3 04/05/2021 08:17:23 0.14,-104.34 -0.76,-100.24 466.23 80
4 04/05/2021 20:38:46 -0.14,-104.32 -0.37,-105.43 125.88 80
5 04/07/2021 20:23:54 -0.14,-104.31 0.25,-102.47 209.83 80
6 04/08/2021 08:45:09 0.15,-104.31 0.86,-107.62 376.49 80
7 04/10/2021 08:32:57 0.15,-104.32 0.24,-104.66 39.72 80
8 04/12/2021 08:23:25 0.15,-104.32 -0.38,-101.70 297.27 80
9 04/12/2021 20:44:50 -0.15,-104.34 -0.68,-106.90 291.15 80
10 04/14/2021 20:29:58 -0.15,-104.34 -0.05,-103.95 45.23 80
11 04/16/2021 20:17:46 -0.15,-104.34 0.59,-100.99 381.54 80
